Flag for Portugal Weather past 2 weeks in Portimão, Portugal

Now
68 °F

Sunny.


Feels Like: 68 °F
Forecast: 51 / 75 °F
Wind: 6 mph from Southwest

Location: Faro / Aeroporto

Current Time: Mar 30, 2015 at 11:57:21 AM

Latest Report: Mar 30, 2015 at 11:00 AM


Visibility: 10 mi

Pressure: 30.36 "Hg

Humidity: 49%

Dew point: 48 °F

Location of PortimãoLocation

Historic Weather in Portimão — Graph

°F

Portimão temperature yesterday

Maximum temperature yesterday: 82 °F (at 3:30 PM)
Minimum temperature yesterday: 55 °F (at 7:00 AM)
Average temperature yesterday: 68 °F

Past Weeks' High & Low Weather Summary

 TemperatureHumidityPressure
High82 °F (Mar 29, 3:30 PM)100% (Mar 20, 10:30 PM)30.36 "Hg (Mar 20, 10:30 PM)
Low45 °F (Mar 16, 7:00 AM)21% (Mar 29, 4:00 PM)29.62 "Hg (Mar 24, 4:30 AM)
Average58 °F72%29.96 "Hg
* Reported Mar 15 9:00 AM — Mar 30 10:30 AM, Portimão, Weather by CustomWeather, © 2015

Note: Actual official high and low records may vary slightly from our data, if they occured in-between our weather recording intervals... More about our weather records

Advertising

Portimão weather history for previous 24 hours

 ConditionsComfort  
Time TempWeatherWind HumidityBarometerVisibility
10:30 AM
Mon, Mar 30
68 °FPassing clouds.6 mph38%30.36 "HgN/A
10:00 AM68 °FSunny.2 mph33%30.36 "Hg10 mi
9:30 AM66 °FSunny.5 mph37%30.36 "Hg10 mi
9:00 AM63 °FSunny.5 mph49%30.36 "Hg10 mi
8:30 AM59 °FSunny.6 mph55%30.36 "Hg10 mi
8:00 AM55 °FClear.2 mph63%30.33 "Hg10 mi
7:30 AM59 °FClear.No wind51%30.33 "Hg10 mi
7:00 AM55 °FClear.2 mph67%30.33 "Hg10 mi
6:30 AM57 °FPassing clouds.3 mph63%30.33 "HgN/A
6:00 AM57 °FClear.5 mph59%30.33 "Hg10 mi
5:30 AM59 °FClear.7 mph55%30.33 "Hg10 mi
5:00 AM59 °FPassing clouds.5 mph59%30.33 "HgN/A
4:30 AM61 °FClear.12 mph48%30.33 "Hg10 mi
4:00 AM59 °FClear.7 mph55%30.33 "Hg10 mi
3:30 AM59 °FClear.8 mph55%30.33 "Hg10 mi
3:00 AM57 °FPassing clouds.5 mph55%30.33 "HgN/A
2:30 AM59 °FClear.3 mph51%30.33 "Hg10 mi
2:00 AM59 °FClear.8 mph63%30.36 "Hg10 mi
1:30 AM59 °FClear.8 mph68%30.36 "Hg10 mi
1:00 AM61 °FClear.9 mph63%30.36 "Hg10 mi
12:30 AM61 °FClear.10 mph68%30.36 "Hg10 mi
12:00 AM64 °FClear.7 mph52%30.36 "Hg10 mi
11:30 PM
Sun, Mar 29
64 °FClear.9 mph52%30.36 "Hg10 mi
11:00 PM66 °FClear.9 mph52%30.36 "Hg10 mi
10:00 PM66 °FClear.8 mph60%30.36 "Hg10 mi
9:30 PM63 °FPassing clouds.5 mph77%30.33 "HgN/A
9:00 PM63 °FClear.8 mph77%30.33 "Hg10 mi
8:30 PM66 °FPassing clouds.7 mph68%30.33 "HgN/A
8:00 PM73 °FSunny.13 mph44%30.30 "Hg10 mi
7:30 PM75 °FPassing clouds.10 mph36%30.30 "HgN/A
7:00 PM79 °FSunny.12 mph26%30.30 "Hg10 mi
6:30 PM79 °FSunny.17 mph28%30.30 "Hg10 mi
6:00 PM81 °FSunny.16 mph28%30.27 "Hg10 mi
5:30 PM81 °FSunny.14 mph32%30.27 "Hg10 mi
5:00 PM81 °FSunny.15 mph30%30.27 "Hg10 mi
4:30 PM81 °FPassing clouds.12 mph28%30.27 "HgN/A
4:00 PM82 °FSunny.14 mph21%30.30 "Hg10 mi
3:30 PM82 °FPassing clouds.14 mph23%30.30 "HgN/A
3:00 PM75 °FSunny.9 mph29%30.30 "Hg10 mi
2:30 PM75 °FSunny.8 mph41%30.30 "Hg10 mi
2:00 PM81 °FSunny.8 mph23%30.30 "Hg10 mi
1:30 PM79 °FSunny.6 mph30%30.33 "Hg10 mi
1:00 PM75 °FPassing clouds.6 mph39%30.33 "HgN/A
12:30 PM70 °FPassing clouds.6 mph53%30.36 "HgN/A
12:04 PM72 °FSunny.5 mph47%30.36 "Hg10 mi
11:30 AM70 °FSunny.7 mph43%30.36 "Hg10 mi
11:00 AM68 °FSunny.8 mph46%30.36 "Hg10 mi
Weather by CustomWeather, © 2015

See weather overviewHow to use our weather pages